Cecil Field, FL

12:25 AM EDT on March 24, 2017 (GMT -0400)
Cecil

Weather History for KVQQ - November, 2013

Change the Weather History Date:

Tuesday, November 19, 2013

  Actual Average (KNIP) Record (KNIP)
Temperature  
Mean Temperature 61 °F -  
Max Temperature 69 °F 70 °F 80 °F (1998)
Min Temperature 53 °F 54 °F 32 °F (1998)
Degree Days  
Heating Degree Days 4    
Growing Degree Days 11 (Base 50)    
Moisture  
Dew Point 52 °F    
Average Humidity 77    
Maximum Humidity 100    
Minimum Humidity 58    
Precipitation  
Precipitation 0.00 in - - ()
Sea Level Pressure  
Sea Level Pressure 30.00 in    
Wind  
Wind Speed 8 mph (North)    
Max Wind Speed 18 mph    
Max Gust Speed 23 mph    
Visibility 10 miles    
Events      
Averages and records for this station are not official NWS values.
T = Trace of Precipitation, MM = Missing Value Source: NWS Daily Summary

Daily Weather History Graph

Daily Weather History Graph

Search for Another Location

Airport or City:

Trip Planner

Search our weather history database for the weather conditions in past years. The results will help you decide how hot, cold, wet, or windy it might be!

Date:

Astronomy

Nov. 19, 2013 Rise Set
Actual Time 6:56 AM EST 5:29 PM EST
Civil Twilight 6:30 AM EST 5:54 PM EST
Nautical Twilight 6:01 AM EST 6:23 PM EST
Astronomical Twilight 5:33 AM EST 6:52 PM EST
Moon 7:20 PM EST (11/19) 8:33 AM EST (11/19)
Length of Visible Light 11h 23m
Length of Day
10h 32m
Waning Gibbous, 96% of the Moon is Illuminated
Nov 19
Waning Gibbous
Nov 25
Last Quarter
Dec 2
New
Dec 9
First Quarter
Dec 17
Full

Hourly Weather History & Observations

Time (EST) Temp. Dew Point Humidity Pressure Visibility Wind Dir Wind Speed Gust Speed Precip Events Conditions
12:15 AM 69.8 °F 68.0 °F 94% 29.94 in 8.0 mi WNW 6.9 mph - N/A   Overcast
12:35 AM 69.8 °F 69.8 °F 100% 29.94 in 8.0 mi Calm Calm - N/A   Overcast
12:55 AM 68.0 °F 68.0 °F 100% 29.94 in 7.0 mi NW 3.5 mph - N/A   Mostly Cloudy
1:15 AM 69.8 °F 68.0 °F 94% 29.94 in 10.0 mi NNW 11.5 mph 16.1 mph N/A   Mostly Cloudy
1:35 AM 68.0 °F 66.2 °F 94% 29.94 in 10.0 mi NNW 12.7 mph - N/A   Partly Cloudy
1:55 AM 66.2 °F 59.0 °F 78% 29.94 in 10.0 mi NNW 15.0 mph - N/A   Scattered Clouds
2:15 AM 64.4 °F 59.0 °F 83% 29.95 in 10.0 mi NNW 9.2 mph - N/A   Mostly Cloudy
2:35 AM 62.6 °F 53.6 °F 72% 29.95 in 10.0 mi North 8.1 mph - N/A   Overcast
2:55 AM 62.6 °F 48.2 °F 59% 29.95 in 10.0 mi North 8.1 mph - N/A   Mostly Cloudy
3:15 AM 59.0 °F 48.2 °F 67% 29.95 in 10.0 mi North 6.9 mph - N/A   Partly Cloudy
3:35 AM 59.0 °F 46.4 °F 63% 29.95 in 10.0 mi NNW 6.9 mph - N/A   Clear
3:55 AM 57.2 °F 48.2 °F 72% 29.95 in 10.0 mi Calm Calm - N/A   Clear
4:15 AM 57.2 °F 46.4 °F 67% 29.95 in 10.0 mi NNW 5.8 mph - N/A   Clear
4:35 AM 55.4 °F 48.2 °F 77% 29.96 in 10.0 mi NNW 5.8 mph - N/A   Clear
4:55 AM 55.4 °F 48.2 °F 77% 29.96 in 10.0 mi NNW 8.1 mph - N/A   Mostly Cloudy
5:15 AM 57.2 °F 46.4 °F 67% 29.96 in 10.0 mi North 8.1 mph - N/A   Overcast
5:35 AM 57.2 °F 44.6 °F 63% 29.96 in 10.0 mi North 8.1 mph - N/A   Overcast
5:55 AM 55.4 °F 42.8 °F 63% 29.97 in 10.0 mi NNW 8.1 mph - N/A   Scattered Clouds
6:15 AM 55.4 °F 41.0 °F 58% 29.97 in 10.0 mi North 6.9 mph - N/A   Clear
6:35 AM 53.6 °F 41.0 °F 62% 29.98 in 10.0 mi North 6.9 mph - N/A   Clear
6:50 AM 53.6 °F 41.0 °F 62% 29.98 in 10.0 mi North 9.2 mph - N/A   Clear
7:50 AM 53.6 °F 39.2 °F 58% 30.00 in 10.0 mi North 11.5 mph - N/A   Clear
8:50 AM 55.4 °F 41.0 °F 58% 30.02 in 10.0 mi North 9.2 mph - N/A   Clear
9:50 AM 60.8 °F 48.2 °F 63% 30.03 in 10.0 mi North 6.9 mph - N/A   Clear
10:50 AM 64.4 °F 51.8 °F 64% 30.03 in 10.0 mi NE 11.5 mph - N/A   Clear
11:50 AM 68.0 °F 53.6 °F 60% 30.03 in 10.0 mi NE 11.5 mph - N/A   Clear
12:50 PM 68.0 °F 55.4 °F 64% 30.01 in 10.0 mi NE 11.5 mph 23.0 mph N/A   Scattered Clouds
1:50 PM 66.2 °F 55.4 °F 68% 30.00 in 10.0 mi NNE 12.7 mph - N/A   Mostly Cloudy
2:50 PM 64.4 °F 53.6 °F 68% 30.01 in 10.0 mi NNE 13.8 mph - N/A   Overcast
3:50 PM 62.6 °F 53.6 °F 72% 30.01 in 10.0 mi NNE 18.4 mph - N/A   Overcast
4:50 PM 60.8 °F 53.6 °F 77% 30.02 in 10.0 mi NE 13.8 mph - N/A   Mostly Cloudy
5:50 PM 59.0 °F 51.8 °F 77% 30.03 in 10.0 mi NNE 11.5 mph - N/A   Mostly Cloudy
6:50 PM 57.2 °F 51.8 °F 82% 30.05 in 10.0 mi NNE 10.4 mph - N/A   Mostly Cloudy
7:50 PM 57.2 °F 51.8 °F 82% 30.05 in 10.0 mi North 5.8 mph - N/A   Mostly Cloudy
8:15 PM 55.4 °F 51.8 °F 88% 30.07 in 10.0 mi NNW 6.9 mph - N/A   Mostly Cloudy
8:35 PM 55.4 °F 51.8 °F 88% 30.06 in 10.0 mi North 6.9 mph - N/A   Overcast
8:55 PM 55.4 °F 51.8 °F 88% 30.06 in 10.0 mi NNW 5.8 mph - N/A   Overcast
9:15 PM 55.4 °F 51.8 °F 88% 30.07 in 10.0 mi NNW 8.1 mph - N/A   Overcast
9:35 PM 53.6 °F 50.0 °F 88% 30.07 in 10.0 mi NNW 6.9 mph - N/A   Scattered Clouds
9:55 PM 53.6 °F 50.0 °F 88% 30.07 in 10.0 mi NNW 6.9 mph - N/A   Clear
10:15 PM 53.6 °F 50.0 °F 88% 30.07 in 10.0 mi NNW 6.9 mph - N/A   Clear
10:35 PM 53.6 °F 50.0 °F 88% 30.07 in 10.0 mi NNW 6.9 mph - N/A   Clear
10:55 PM 53.6 °F 50.0 °F 88% 30.08 in 10.0 mi NNW 5.8 mph - N/A   Scattered Clouds
11:15 PM 53.6 °F 50.0 °F 88% 30.07 in 10.0 mi North 6.9 mph - N/A   Mostly Cloudy
11:35 PM 53.6 °F 50.0 °F 88% 30.08 in 10.0 mi NNW 6.9 mph - N/A   Mostly Cloudy
11:55 PM 53.6 °F 51.8 °F 94% 30.08 in 10.0 mi NNW 6.9 mph - N/A   Overcast